Location: Tucson
(32.2217°N, 110.9265°W)
Time: 19:14:50
(UTC-07:00)

N. Korean satellite - Visible Passes

Search period start: 16 January 2019 00:00
Search period end: 26 January 2019 00:00
Orbit: 458 x 509 km, 97.2° (Epoch: 16 January)

Date Brightness Start Highest point End Pass type
(mag) Time Alt. Az. Time Alt. Az. Time Alt. Az.
16 Jan 9.2 05:55:33 10° NE 05:58:36 24° E 06:01:35 10° SSE visible
17 Jan 10.2 05:32:44 10° ENE 05:33:47 11° E 05:34:51 10° ESE visible
18 Jan 6.5 06:39:02 10° N 06:42:45 76° W 06:46:23 10° SSW visible
18 Jan 9.7 18:44:09 10° SW 18:46:49 19° W 18:49:31 10° NW visible
19 Jan 7.9 06:14:32 10° NNE 06:18:05 44° E 06:21:35 10° S visible
19 Jan 8.1 18:18:38 10° S 18:22:04 43° W 18:25:35 10° NNW visible
20 Jan 9.5 05:50:34 10° NE 05:53:21 20° E 05:56:06 10° SE visible
21 Jan 10.4 19:05:35 10° WSW 19:06:22 11° W 19:07:09 10° W visible
22 Jan 6.6 06:33:50 10° N 06:37:32 90° ENE 06:41:08 10° SSW visible
22 Jan 9.4 18:38:38 10° SSW 18:41:33 23° W 18:44:32 10° NW visible
23 Jan 8.2 06:09:25 10° NNE 06:12:51 37° E 06:16:12 10° SSE visible
23 Jan 7.7 18:13:16 10° S 18:16:50 51° W 18:20:27 10° NNW visible
24 Jan 9.7 05:45:37 10° NE 05:48:05 17° E 05:50:31 10° SE visible
25 Jan 6.9 06:53:23 10° N 06:56:53 44° WNW 07:00:18 10° SSW visible
25 Jan 10.1 18:59:26 10° WSW 19:01:05 13° W 19:02:44 10° WNW visible
